[[{"header":{"parameterUnit":"m.s-1","parameterCategory":1,"la1":30.2991,"la2":30.254,"lo1":-89.0895,"lo2":-89.0444,"dy":0.0017,"dx":0.0017,"nx":28,"ny":28,"refTime":"2024-02-16T09:00:00:Z","depth":0,"parameterNumber":2,"parameterNumberName":"U-component_of_WINDS"},"data":[0,0,0,0,0,0,0,0,0,0,0,0,0,0,0,0,0,0,0,0,0,0,0,0,0,0,0,0,0,0,0,0,0,0,0,0,0,0,0,0,0,0,0,0,0,0,0,0,0,0,0,0,0,0,0,0,0,0,1.1258,1.126,0,1.1406,1.1407,1.1409,1.1467,1.1466,1.1466,1.1465,1.1618,1.1622,1.1626,0,0,0,0,0,0,0,0,0,0,0,0,0,1.1026,1.103,1.1258,1.126,1.1262,1.1405,1.1407,1.1409,1.1467,1.1466,1.1466,1.1465,1.1616,1.1621,1.1627,0,0,0,0,0,0,0,0,0,0,0,0,0,1.1145,1.1031,1.1258,1.1308,1.1313,1.1405,1.1407,1.141,1.1467,1.1466,1.1466,1.1465,1.1614,1.1621,1.1627,1.168,0,0,1.1648,1.165,0,0,0,0,0,0,0,0,1.1138,1.1154,1.1298,1.1304,1.1311,1.1417,1.1381,1.1501,1.1467,1.1409,1.1465,1.1465,1.1551,1.1563,1.1592,1.1687,1.1694,1.1648,1.1652,1.1655,1.1657,0,0,0,0,0,0,0,1.113,1.1148,1.1316,1.13,1.1308,1.1323,1.1339,1.1404,1.1482,1.1414,1.1418,1.1435,1.1555,1.1586,1.1596,1.1696,1.1648,1.1654,1.1658,1.1661,1.1841,1.1842,0,0,0,0,0,0,1.1114,1.114,1.1312,1.1321,1.1222,1.1327,1.1345,1.1384,1.1481,1.1495,1.1435,1.1437,1.1575,1.1588,1.1602,1.167,1.1655,1.1661,1.1665,1.184,1.1841,1.1842,0,0,0,0,0,0,1.1108,1.1128,1.1306,1.1232,1.1256,1.1332,1.1374,1.1387,1.1418,1.1497,1.1511,1.1453,1.1575,1.1592,1.166,1.1676,1.1664,1.167,1.1839,1.1841,1.1842,1.1806,0,0,0,0,0,0,1.1101,1.1126,1.1147,1.1232,1.1259,1.1361,1.1375,1.139,1.1429,1.1433,1.1517,1.1531,1.1576,1.165,1.1667,1.1685,1.1675,1.1838,1.184,1.1841,1.1806,1.1806,1.1805,0,0,0,0,0,1.1093,1.1131,1.1148,1.1168,1.1287,1.1362,1.1378,1.1428,1.143,1.1452,1.1502,1.1528,1.1671,1.1656,1.1676,1.1696,1.1838,1.184,1.1841,1.1806,1.1806,1.1805,0,0,0,0,0,0,1.1047,1.1144,1.1163,1.123,1.1287,1.1372,1.1401,1.1427,1.1485,1.1486,1.1547,1.1565,1.1628,1.1669,1.165,1.1752,1.1756,1.1762,1.1723,1.1723,1.1723,1.1712,1.1681,0,0,0,0,0,1.1044,1.1097,1.1179,1.123,1.1258,1.1324,1.1359,1.1393,1.1455,1.1479,1.1535,1.1595,1.1653,1.169,1.1749,1.1812,1.1831,1.1835,1.1835,1.1834,1.1839,1.1875,1.1877,1.1848,1.1848,1.1848,0,0,1.104,1.1099,1.1129,1.1222,1.1271,1.1324,1.1344,1.14,1.144,1.1488,1.1555,1.1598,1.1668,1.1734,1.1765,1.177,1.1851,1.1837,1.1836,1.1841,1.1877,1.1879,1.1882,1.185,1.1849,1.1849,0,0,1.106,1.111,1.1158,1.1206,1.1279,1.1322,1.1333,1.1414,1.1444,1.1512,1.1549,1.1597,1.1697,1.1745,1.1783,1.1819,1.1844,1.1836,1.1835,1.1869,1.1871,1.1873,1.1886,1.189,1.184,1.184,1.184,0,1.1045,1.1127,1.1179,1.1233,1.1272,1.1317,1.1366,1.141,1.1498,1.1525,1.1528,1.1653,1.1704,1.178,1.1789,1.1818,1.1833,1.1827,1.1866,1.1869,1.1872,1.1885,1.1889,1.1838,1.1839,1.1839,1.1839,0,1.1105,1.1161,1.1191,1.1274,1.1317,1.1368,1.1428,1.1465,1.1495,1.1538,1.1606,1.1668,1.1739,1.176,1.179,1.1841,1.1841,1.1855,1.1861,1.1873,1.1885,1.1891,1.1836,1.1837,1.1837,1.1838,0,0,1.1101,1.1211,1.1222,1.1259,1.1342,1.1387,1.1439,1.1508,1.1539,1.1597,1.1643,1.1725,1.1738,1.178,1.1816,1.1846,1.187,1.1856,1.1859,1.1856,1.1929,1.1918,1.1923,1.1887,1.1888,1.1889,1.1923,0,1.1131,1.1227,1.1275,1.135,1.1402,1.1445,1.149,1.1546,1.1587,1.1637,1.1683,1.174,1.1753,1.1779,1.181,1.186,1.1885,1.1858,1.193,1.1932,1.1911,1.193,1.1919,1.1949,1.1929,1.193,1.193,0,1.118,1.1238,1.1317,1.1393,1.1417,1.1457,1.1523,1.1571,1.1635,1.1662,1.1709,1.1743,1.18,1.1801,1.188,1.186,1.1892,1.1921,1.1923,1.1932,1.1932,1.1939,1.196,1.1964,1.1939,1.1938,1.1937,0,1.1168,1.1266,1.1326,1.1357,1.1447,1.1474,1.1513,1.1577,1.1614,1.1673,1.1698,1.1762,1.1797,1.1845,1.1896,1.1892,1.1969,1.1975,1.1994,1.1993,1.2009,1.2007,1.2034,1.2029,1.2029,1.2029,1.2029,0,1.1197,1.1244,1.1322,1.1359,1.1413,1.1467,1.1519,1.1561,1.1616,1.1662,1.1703,1.1745,1.181,1.186,1.19,1.1958,1.1974,1.1998,1.2008,1.1994,1.1991,1.2016,1.2016,1.203,1.203,1.2029,1.2029,0,1.1193,1.1247,1.1316,1.1395,1.1416,1.1452,1.152,1.1557,1.16,1.1657,1.1674,1.1741,1.1802,1.1857,1.1939,1.1965,1.2025,1.2038,1.2003,1.2009,1.2025,1.2022,1.2069,1.2078,1.2066,1.2066,1.2066,0,1.1208,1.1246,1.1328,1.1362,1.14,1.1453,1.1492,1.1546,1.1585,1.1659,1.1688,1.1751,1.1805,1.1901,1.1957,1.2019,1.2033,1.2045,1.2043,1.2028,1.2033,1.203,1.2034,1.2045,1.2045,1.2045,1.2044,0,1.1229,1.1254,1.1308,1.1371,1.1415,1.1468,1.1522,1.1546,1.1611,1.1652,1.1715,1.1756,1.1839,1.1901,1.1969,1.2009,1.2038,1.2045,1.2052,1.2039,1.2017,1.2029,1.2002,1.2043,1.2044,1.2044,1.2044,1.2044,1.1236,1.127,1.1333,1.1392,1.1438,1.1487,1.1525,1.1572,1.1625,1.1696,1.1725,1.1788,1.185,1.1944,1.1984,1.2034,1.204,1.2051,1.2054,1.2056,1.2053,1.2009,1.2047,1.2047,1.2047,1.2047,1.2047,0,1.1258,1.1301,1.1354,1.1427,1.1473,1.1495,1.1555,1.1592,1.1647,1.1702,1.1754,1.1825,1.1886,1.1946,1.201,1.2038,1.2053,1.2053,1.2052,1.206,1.2045,1.2032,1.204,1.204,1.204,1.204,1.204,1.204,1.1275,1.1335,1.1366,1.1449,1.1491,1.1553,1.1585,1.1631,1.1675,1.1752,1.1802,1.1841,1.1898,1.1966,1.2023,1.2039,1.2061,1.2057,1.2077,1.2061,1.2062,1.2062,1.2049,1.2062,1.2062,1.2088,1.2089,1.2089]},{"header":{"parameterUnit":"m.s-1","parameterCategory":1,"la1":30.2991,"la2":30.254,"lo1":-89.0895,"lo2":-89.0444,"dy":0.0017,"dx":0.0017,"nx":28,"ny":28,"refTime":"2024-02-16T09:00:00:Z","depth":0,"parameterNumber":3,"parameterNumberName":"V-component_of_WINDS"},"data":[0,0,0,0,0,0,0,0,0,0,0,0,0,0,0,0,0,0,0,0,0,0,0,0,0,0,0,0,0,0,0,0,0,0,0,0,0,0,0,0,0,0,0,0,0,0,0,0,0,0,0,0,0,0,0,0,0,0,1.419,1.4192,0,1.4379,1.4381,1.4383,1.4421,1.442,1.4418,1.4417,1.4614,1.462,1.4627,0,0,0,0,0,0,0,0,0,0,0,0,0,1.3866,1.3871,1.419,1.4192,1.4195,1.4378,1.4381,1.4384,1.4422,1.442,1.4418,1.4416,1.4612,1.462,1.4628,0,0,0,0,0,0,0,0,0,0,0,0,0,1.4026,1.3873,1.419,1.4236,1.4242,1.4378,1.4381,1.4384,1.4422,1.442,1.4418,1.4415,1.4609,1.4619,1.4629,1.4733,0,0,1.4659,1.4663,0,0,0,0,0,0,0,0,1.4016,1.4037,1.4227,1.4233,1.424,1.4374,1.4339,1.4501,1.4422,1.4354,1.4417,1.4414,1.4536,1.4552,1.4592,1.4743,1.4751,1.466,1.4666,1.467,1.4673,0,0,0,0,0,0,0,1.4005,1.403,1.4265,1.4229,1.4237,1.4248,1.4268,1.437,1.4455,1.4359,1.4363,1.4384,1.4539,1.4583,1.4597,1.4754,1.4659,1.4668,1.4674,1.4678,1.5,1.5002,0,0,0,0,0,0,1.3986,1.402,1.4259,1.4271,1.412,1.4255,1.4278,1.4333,1.4454,1.447,1.4386,1.4385,1.4567,1.4586,1.4604,1.4735,1.467,1.4679,1.4685,1.4997,1.5,1.5003,0,0,0,0,0,0,1.3979,1.4007,1.4251,1.4146,1.4178,1.4263,1.4325,1.4338,1.4381,1.4474,1.449,1.4414,1.4566,1.459,1.4701,1.4743,1.4684,1.4693,1.4994,1.4998,1.5002,1.4998,0,0,0,0,0,0,1.3969,1.4004,1.4044,1.4147,1.4184,1.4344,1.4328,1.4343,1.4398,1.4399,1.4505,1.452,1.4566,1.4686,1.471,1.4755,1.47,1.4991,1.4996,1.5,1.4995,1.5001,1.5007,0,0,0,0,0,1.3957,1.4036,1.4046,1.4075,1.4236,1.4346,1.4367,1.4417,1.4401,1.4443,1.4502,1.4517,1.4733,1.4697,1.4725,1.4773,1.4988,1.4994,1.5,1.4992,1.5,1.5007,0,0,0,0,0,0,1.3938,1.4051,1.4063,1.4177,1.4251,1.4352,1.4407,1.4424,1.4506,1.4504,1.4563,1.4587,1.4694,1.4744,1.4701,1.4881,1.486,1.4872,1.4844,1.4853,1.4859,1.4845,1.4709,0,0,0,0,0,1.3947,1.4026,1.4121,1.4213,1.4249,1.4321,1.4371,1.4403,1.4483,1.4515,1.4583,1.4661,1.4747,1.4802,1.4886,1.5001,1.5025,1.5048,1.5054,1.5059,1.5069,1.5134,1.5146,1.5022,1.5022,1.5022,0,0,1.3967,1.4038,1.4085,1.4211,1.4272,1.4354,1.4348,1.4435,1.4496,1.4529,1.4638,1.4689,1.478,1.4893,1.4947,1.4939,1.5108,1.5066,1.5069,1.5077,1.5141,1.5153,1.5163,1.5026,1.5025,1.5025,0,0,1.4045,1.4106,1.4189,1.425,1.4343,1.439,1.4409,1.4508,1.4543,1.4652,1.4678,1.4752,1.4899,1.4963,1.5014,1.5114,1.5131,1.5139,1.5172,1.5234,1.5244,1.5253,1.529,1.5302,1.5149,1.5149,1.5149,0,1.4058,1.4182,1.423,1.4316,1.4371,1.4402,1.4487,1.4544,1.466,1.4698,1.4686,1.487,1.4934,1.5062,1.5086,1.5127,1.5152,1.5129,1.5239,1.5248,1.5257,1.5293,1.5307,1.5149,1.5149,1.5149,1.5149,0,1.4194,1.4279,1.4335,1.4444,1.4505,1.459,1.4653,1.4709,1.4734,1.4782,1.4893,1.497,1.507,1.5102,1.5129,1.5235,1.5227,1.5226,1.5207,1.5269,1.5303,1.5317,1.515,1.515,1.515,1.515,0,0,1.4268,1.4401,1.4421,1.4471,1.4574,1.4641,1.4727,1.4824,1.4871,1.4949,1.5024,1.5145,1.5145,1.5203,1.5237,1.5292,1.5367,1.5285,1.5288,1.5299,1.5489,1.5491,1.5506,1.5378,1.538,1.5383,1.5482,0,1.436,1.4514,1.4559,1.4689,1.4769,1.4798,1.4873,1.4945,1.4992,1.5067,1.5119,1.5205,1.5197,1.5233,1.5288,1.5346,1.5406,1.5339,1.5449,1.5453,1.5428,1.5524,1.5526,1.5616,1.5496,1.5498,1.55,0,1.4489,1.4567,1.4704,1.4796,1.4831,1.4898,1.499,1.506,1.5142,1.5172,1.5236,1.5265,1.5357,1.533,1.5458,1.5411,1.5458,1.5494,1.5498,1.5513,1.5482,1.5542,1.5646,1.566,1.5522,1.552,1.5518,0,1.453,1.467,1.4771,1.4812,1.4922,1.4968,1.5016,1.5095,1.515,1.523,1.5266,1.5356,1.5406,1.5475,1.5527,1.5503,1.5651,1.5629,1.568,1.5679,1.5712,1.571,1.5827,1.5739,1.5739,1.5738,1.5738,0,1.463,1.4713,1.4791,1.4853,1.4947,1.4998,1.509,1.514,1.521,1.5282,1.5313,1.5381,1.5444,1.5521,1.5562,1.5662,1.5684,1.5712,1.5723,1.5711,1.5708,1.5745,1.5741,1.5742,1.5741,1.5741,1.574,0,1.4694,1.4749,1.4861,1.4954,1.4979,1.5045,1.5126,1.5187,1.5233,1.5325,1.535,1.5424,1.5515,1.5573,1.569,1.5718,1.5828,1.5835,1.58,1.5805,1.5854,1.5849,1.6001,1.6024,1.5918,1.5919,1.592,0,1.4754,1.4819,1.4919,1.4969,1.5016,1.5097,1.5152,1.5204,1.5261,1.5358,1.5408,1.55,1.5578,1.5723,1.5788,1.5877,1.5888,1.5935,1.5902,1.5888,1.5891,1.5887,1.5895,1.5941,1.5942,1.5943,1.5943,0,1.4857,1.488,1.4958,1.5045,1.511,1.5181,1.5253,1.5293,1.5357,1.5419,1.5512,1.5571,1.5689,1.5782,1.5877,1.5927,1.5947,1.5953,1.597,1.5959,1.5937,1.5951,1.5817,1.595,1.5949,1.5949,1.5948,1.5948,1.4923,1.4981,1.506,1.5145,1.5204,1.527,1.5332,1.5385,1.5463,1.5563,1.5588,1.5686,1.5765,1.5894,1.5946,1.6024,1.6018,1.6042,1.6049,1.6055,1.6056,1.5922,1.6041,1.6041,1.6041,1.6041,1.6041,0,1.5028,1.5079,1.5157,1.5255,1.5322,1.5332,1.5411,1.5467,1.5552,1.5624,1.5698,1.5805,1.5894,1.5965,1.6057,1.6105,1.6117,1.6128,1.6126,1.6138,1.6055,1.6032,1.6117,1.6117,1.6117,1.6117,1.6117,1.6117,1.509,1.519,1.5223,1.5352,1.5403,1.5497,1.5542,1.5603,1.566,1.5777,1.5851,1.5896,1.5967,1.6064,1.6147,1.6165,1.6199,1.6208,1.6229,1.6152,1.6143,1.6135,1.6114,1.6215,1.6215,1.6305,1.6306,1.6306]}]]